Terug naar catalogus

STARLINK-6207

ActiefCommunicatieVLEO
NORAD 56900·PAYLOAD·🇺🇸 United States

Gelanceerd Jun 12, 2023 vanaf Cape Canaveral Space Force Station

Loading…

Volgende Passages (komende 24 uur)

TLE

VersSource: CelesTrak SupGP

Epoch: Sep 14, 2026, 22:07 UTC

1 56900C 23083AA  26257.92201389  .00035501  00000+0  12860-2 0  2571
2 56900  43.0029  82.3383 0002116 273.8187 131.4331 15.27555209    11

Volg STARLINK-6207 in realtime met AllMySat

Download on the App Store